Registrering Status Plassering
LN-NAZ Operativ Rakkestad - ENRK 

Søk
Nye sertifikater

Sertifikater

Kontakt informasjon

Follo flyklubb.
Postboks 226, N-1401 Ski
Epost: post@follo-flyklubb.no

Tel: 64 87 13 82
Du er her: Hovedside

Hovedside

 

Follo flyklubb er en flyklubb med primærbase på Ski flyplass, og sekundærbase (vinterbase) på Rakkestad flyplass. Disse websidene er ment som en informasjonskanal til flyklubbens medlemmer, og andre som måtte være interessert i Follo flyklubbs virksomhet. Har du kommentarer eller bidrag du ønsker å dele med flyklubben, send oss en melding her.

Har noen av flyklubbens medlemmer forslag til turer, aktiviteter eller kurs- og infokvelder dere ønsker at vi deltar på eller avholder, så gi beskjed til styret via epost.

 

Før flyturen: Ta en sjekk på datoer i sertifikatene dine. Husk at det er forskjell på gyldighetsdato for PPL-sertifikatet og klasserettighet, som f.eks. SEP. Her er noen nyttige spørsmål, og litt om rettigheter her.

ENGM 230820Z 08005KT 030V130 CAVOK 16/06 Q1025 NOSIG
ENTO 230820Z 04006KT 010V090 CAVOK 18/09 Q1024
ENRY 230820Z 07003KT 350V110 CAVOK 19/08 Q1025 NOSIG
ENSN 090850Z 20010G22KT 150V240 CAVOK 07/03 Q1000
ENCN 230820Z VRB03KT CAVOK 20/09 Q1024
ENZV 230820Z 32006KT 9000 BKN006 11/08 Q1025 NOSIG

ENFG 220850Z 19007KT CAVOK 06/M03 Q1014
ENNO 230750Z 28003KT CAVOK 18/08 Q1024
 

Bruk av myWebLog

Follo flyklubb benytter nå myWebLog, se nyheter for mer informasjon
Logging av flyvning skal foretas ”umiddelbart” etter at flyvning har funnet sted. Da har systemet oppdatert medlemmets konto i myWebLog basert på de opplysningene som er skrevet inn i loggen. Flyets data blir også oppdatert, slik at den neste som skal ut å fly kan få en indikasjon på flyets tilstand, hvor det befinner seg og hvor lenge det er til neste service.